owner,sensor,date,latitude,longitude,vertical_datum,wind_speed,wind_to_direction,wind_speed_of_gust,qcFlag 
NDBC,ioos:station:NOAA.NDBC:PTAT2:1,2017-03-01T00:00:00Z,27.8260,-97.0510,14.9,9.3,140.0,10.3,'1111122,1111122,1111122' 
NDBC,ioos:station:NOAA.NDBC:PTAT2:1,2017-03-01T01:00:00Z,27.8260,-97.0510,14.9,9.3,130.0,10.3,'1111122,1111122,1111122' 
NDBC,ioos:station:NOAA.NDBC:PTAT2:1,2017-03-01T02:00:00Z,27.8260,-97.0510,14.9,9.3,140.0,9.8,'1111122,1111122,1111122' 
NDBC,ioos:station:NOAA.NDBC:PTAT2:1,2017-03-01T03:00:00Z,27.8260,-97.0510,14.9,8.8,170.0,9.8,'1111122,1111122,1111122' 
NDBC,ioos:station:NOAA.NDBC:PTAT2:1,2017-03-01T04:00:00Z,27.8260,-97.0510,14.9,7.2,160.0,7.7,'1111122,1111122,1111122' 
NDBC,ioos:station:NOAA.NDBC:PTAT2:1,2017-03-01T05:00:00Z,27.8260,-97.0510,14.9,7.2,160.0,8.2,'1111122,1111122,1111122' 
NDBC,ioos:station:NOAA.NDBC:PTAT2:1,2017-03-01T06:00:00Z,27.8260,-97.0510,14.9,9.3,160.0,10.8,'1111122,1111122,1111122' 
NDBC,ioos:station:NOAA.NDBC:PTAT2:1,2017-03-01T07:00:00Z,27.8260,-97.0510,14.9,10.3,160.0,11.3,'1111122,1111122,1111122' 
NDBC,ioos:station:NOAA.NDBC:PTAT2:1,2017-03-01T08:00:00Z,27.8260,-97.0510,14.9,6.2,170.0,6.7,'1111122,1111122,1111122' 
NDBC,ioos:station:NOAA.NDBC:PTAT2:1,2017-03-01T09:00:00Z,27.8260,-97.0510,14.9,7.7,180.0,8.2,'1111122,1111122,1111122' 
NDBC,ioos:station:NOAA.NDBC:PTAT2:1,2017-03-01T10:00:00Z,27.8260,-97.0510,14.9,5.1,190.0,5.7,'1111122,1111122,1111122' 
NDBC,ioos:station:NOAA.NDBC:PTAT2:1,2017-03-01T11:00:00Z,27.8260,-97.0510,14.9,5.7,150.0,6.7,'1111122,1111122,1111122' 
NDBC,ioos:station:NOAA.NDBC:PTAT2:1,2017-03-01T12:00:00Z,27.8260,-97.0510,14.9,7.2,150.0,7.7,'1111122,1111122,1111122' 
NDBC,ioos:station:NOAA.NDBC:PTAT2:1,2017-03-01T13:00:00Z,27.8260,-97.0510,14.9,4.6,150.0,5.1,'1111122,1111122,1111122' 
NDBC,ioos:station:NOAA.NDBC:PTAT2:1,2017-03-01T14:00:00Z,27.8260,-97.0510,14.9,3.6,160.0,4.1,'1111122,1111122,1111122' 
NDBC,ioos:station:NOAA.NDBC:PTAT2:1,2017-03-01T15:00:00Z,27.8260,-97.0510,14.9,2.1,330.0,3.1,'1111122,1111122,1111122' 
NDBC,ioos:station:NOAA.NDBC:PTAT2:1,2017-03-01T16:00:00Z,27.8260,-97.0510,14.9,3.1,50.0,3.1,'1111122,1111122,1111122' 
NDBC,ioos:station:NOAA.NDBC:PTAT2:1,2017-03-01T17:00:00Z,27.8260,-97.0510,14.9,3.6,40.0,4.1,'1111122,1111122,1111122' 
NDBC,ioos:station:NOAA.NDBC:PTAT2:1,2017-03-01T18:00:00Z,27.8260,-97.0510,14.9,4.1,100.0,4.1,'1111122,1111122,1111122' 
NDBC,ioos:station:NOAA.NDBC:PTAT2:1,2017-03-01T19:00:00Z,27.8260,-97.0510,14.9,3.6,100.0,4.1,'1111122,1111122,1111122' 
NDBC,ioos:station:NOAA.NDBC:PTAT2:1,2017-03-01T20:00:00Z,27.8260,-97.0510,14.9,3.1,80.0,3.1,'1111122,1111122,1111122' 
NDBC,ioos:station:NOAA.NDBC:PTAT2:1,2017-03-01T21:00:00Z,27.8260,-97.0510,14.9,3.1,60.0,3.1,'1111122,1111122,1111122' 
NDBC,ioos:station:NOAA.NDBC:PTAT2:1,2017-03-01T22:00:00Z,27.8260,-97.0510,14.9,2.1,50.0,2.1,'1111122,1111122,1111122' 
NDBC,ioos:station:NOAA.NDBC:PTAT2:1,2017-03-02T00:00:00Z,27.8260,-97.0510,14.9,7.7,360.0,8.8,'1111122,1111122,1111122' 
NDBC,ioos:station:NOAA.NDBC:PTAT2:1,2017-03-02T01:00:00Z,27.8260,-97.0510,14.9,10.3,360.0,11.8,'1111122,1111122,1111122' 
NDBC,ioos:station:NOAA.NDBC:PTAT2:1,2017-03-02T02:00:00Z,27.8260,-97.0510,14.9,8.8,360.0,10.3,'1111122,1111122,1111122' 
NDBC,ioos:station:NOAA.NDBC:PTAT2:1,2017-03-02T03:00:00Z,27.8260,-97.0510,14.9,8.2,350.0,10.3,'1111122,1111122,1111122' 
NDBC,ioos:station:NOAA.NDBC:PTAT2:1,2017-03-02T04:00:00Z,27.8260,-97.0510,14.9,9.8,360.0,11.3,'1111122,1111122,1111122' 
NDBC,ioos:station:NOAA.NDBC:PTAT2:1,2017-03-02T05:00:00Z,27.8260,-97.0510,14.9,11.3,10.0,12.9,'1111122,1111122,1111122' 
NDBC,ioos:station:NOAA.NDBC:PTAT2:1,2017-03-02T06:00:00Z,27.8260,-97.0510,14.9,11.3,360.0,13.4,'1111122,1111122,1111122' 
NDBC,ioos:station:NOAA.NDBC:PTAT2:1,2017-03-02T07:00:00Z,27.8260,-97.0510,14.9,10.8,360.0,12.9,'1111122,1111122,1111122' 
NDBC,ioos:station:NOAA.NDBC:PTAT2:1,2017-03-02T08:00:00Z,27.8260,-97.0510,14.9,10.3,360.0,11.3,'1111122,1111122,1111122' 
NDBC,ioos:station:NOAA.NDBC:PTAT2:1,2017-03-02T09:00:00Z,27.8260,-97.0510,14.9,9.8,360.0,11.8,'1111122,1111122,1111122' 
NDBC,ioos:station:NOAA.NDBC:PTAT2:1,2017-03-02T10:00:00Z,27.8260,-97.0510,14.9,10.3,360.0,12.4,'1111122,1111122,1111122' 
NDBC,ioos:station:NOAA.NDBC:PTAT2:1,2017-03-02T11:00:00Z,27.8260,-97.0510,14.9,10.3,360.0,11.8,'1111122,1111122,1111122' 
NDBC,ioos:station:NOAA.NDBC:PTAT2:1,2017-03-02T12:00:00Z,27.8260,-97.0510,14.9,10.3,10.0,11.3,'1111122,1111122,1111122' 
NDBC,ioos:station:NOAA.NDBC:PTAT2:1,2017-03-02T13:00:00Z,27.8260,-97.0510,14.9,9.8,360.0,10.8,'1111122,1111122,1111122' 
NDBC,ioos:station:NOAA.NDBC:PTAT2:1,2017-03-02T14:00:00Z,27.8260,-97.0510,14.9,12.9,20.0,14.9,'1111122,1111122,1111122' 
NDBC,ioos:station:NOAA.NDBC:PTAT2:1,2017-03-02T15:00:00Z,27.8260,-97.0510,14.9,14.4,20.0,16.5,'1111122,1111122,1111122' 
NDBC,ioos:station:NOAA.NDBC:PTAT2:1,2017-03-02T16:00:00Z,27.8260,-97.0510,14.9,13.4,20.0,15.4,'1111122,1111122,1111122' 
NDBC,ioos:station:NOAA.NDBC:PTAT2:1,2017-03-02T17:00:00Z,27.8260,-97.0510,14.9,12.4,30.0,14.4,'1111122,1111122,1111122' 
NDBC,ioos:station:NOAA.NDBC:PTAT2:1,2017-03-02T18:00:00Z,27.8260,-97.0510,14.9,10.8,30.0,12.4,'1111122,1111122,1111122' 
NDBC,ioos:station:NOAA.NDBC:PTAT2:1,2017-03-02T19:00:00Z,27.8260,-97.0510,14.9,10.3,40.0,11.3,'1111122,1111122,1111122' 
NDBC,ioos:station:NOAA.NDBC:PTAT2:1,2017-03-02T20:00:00Z,27.8260,-97.0510,14.9,9.3,40.0,10.3,'1111122,1111122,1111122' 
NDBC,ioos:station:NOAA.NDBC:PTAT2:1,2017-03-02T21:00:00Z,27.8260,-97.0510,14.9,8.8,60.0,9.8,'1111122,1111122,1111122' 
NDBC,ioos:station:NOAA.NDBC:PTAT2:1,2017-03-02T22:00:00Z,27.8260,-97.0510,14.9,9.8,60.0,11.3,'1111122,1111122,1111122' 
NDBC,ioos:station:NOAA.NDBC:PTAT2:1,2017-03-02T23:00:00Z,27.8260,-97.0510,14.9,9.3,60.0,10.3,'1111122,1111122,1111122' 
NDBC,ioos:station:NOAA.NDBC:PTAT2:1,2017-03-03T00:00:00Z,27.8260,-97.0510,14.9,9.3,70.0,10.3,'1111122,1111122,1111122' 
NDBC,ioos:station:NOAA.NDBC:PTAT2:1,2017-03-03T01:00:00Z,27.8260,-97.0510,14.9,7.2,50.0,8.2,'1111122,1111122,1111122' 
NDBC,ioos:station:NOAA.NDBC:PTAT2:1,2017-03-03T02:00:00Z,27.8260,-97.0510,14.9,9.3,60.0,9.8,'1111122,1111122,1111122' 
NDBC,ioos:station:NOAA.NDBC:PTAT2:1,2017-03-03T03:00:00Z,27.8260,-97.0510,14.9,8.2,70.0,9.8,'1111122,1111122,1111122' 
NDBC,ioos:station:NOAA.NDBC:PTAT2:1,2017-03-03T04:00:00Z,27.8260,-97.0510,14.9,8.2,60.0,9.8,'1111122,1111122,1111122' 
NDBC,ioos:station:NOAA.NDBC:PTAT2:1,2017-03-03T05:00:00Z,27.8260,-97.0510,14.9,8.2,40.0,9.3,'1111122,1111122,1111122' 
NDBC,ioos:station:NOAA.NDBC:PTAT2:1,2017-03-03T06:00:00Z,27.8260,-97.0510,14.9,7.7,40.0,8.2,'1111122,1111122,1111122' 
NDBC,ioos:station:NOAA.NDBC:PTAT2:1,2017-03-03T07:00:00Z,27.8260,-97.0510,14.9,7.2,50.0,7.7,'1111122,1111122,1111122' 
NDBC,ioos:station:NOAA.NDBC:PTAT2:1,2017-03-03T08:00:00Z,27.8260,-97.0510,14.9,7.7,60.0,8.8,'1111122,1111122,1111122' 
NDBC,ioos:station:NOAA.NDBC:PTAT2:1,2017-03-03T09:00:00Z,27.8260,-97.0510,14.9,5.1,360.0,5.7,'1111122,1111122,1111122' 
NDBC,ioos:station:NOAA.NDBC:PTAT2:1,2017-03-03T10:00:00Z,27.8260,-97.0510,14.9,7.2,360.0,8.2,'1111122,1111122,1111122' 
NDBC,ioos:station:NOAA.NDBC:PTAT2:1,2017-03-03T11:00:00Z,27.8260,-97.0510,14.9,6.7,360.0,7.2,'1111122,1111122,1111122' 
NDBC,ioos:station:NOAA.NDBC:PTAT2:1,2017-03-03T12:00:00Z,27.8260,-97.0510,14.9,7.2,360.0,8.8,'1111122,1111122,1111122' 
NDBC,ioos:station:NOAA.NDBC:PTAT2:1,2017-03-03T13:00:00Z,27.8260,-97.0510,14.9,10.3,30.0,11.8,'1111122,1111122,1111122' 
NDBC,ioos:station:NOAA.NDBC:PTAT2:1,2017-03-03T14:00:00Z,27.8260,-97.0510,14.9,9.3,40.0,10.3,'1111122,1111122,1111122' 
NDBC,ioos:station:NOAA.NDBC:PTAT2:1,2017-03-03T15:00:00Z,27.8260,-97.0510,14.9,9.8,50.0,10.8,'1111122,1111122,1111122' 
NDBC,ioos:station:NOAA.NDBC:PTAT2:1,2017-03-03T16:00:00Z,27.8260,-97.0510,14.9,10.3,50.0,11.3,'1111122,1111122,1111122' 
NDBC,ioos:station:NOAA.NDBC:PTAT2:1,2017-03-03T17:00:00Z,27.8260,-97.0510,14.9,9.8,60.0,11.3,'1111122,1111122,1111122' 
NDBC,ioos:station:NOAA.NDBC:PTAT2:1,2017-03-03T18:00:00Z,27.8260,-97.0510,14.9,9.3,50.0,10.8,'1111122,1111122,1111122' 
NDBC,ioos:station:NOAA.NDBC:PTAT2:1,2017-03-03T19:00:00Z,27.8260,-97.0510,14.9,9.8,50.0,10.8,'1111122,1111122,1111122' 
NDBC,ioos:station:NOAA.NDBC:PTAT2:1,2017-03-03T20:00:00Z,27.8260,-97.0510,14.9,8.2,50.0,9.8,'1111122,1111122,1111122' 
NDBC,ioos:station:NOAA.NDBC:PTAT2:1,2017-03-03T21:00:00Z,27.8260,-97.0510,14.9,8.8,50.0,9.3,'1111122,1111122,1111122' 
NDBC,ioos:station:NOAA.NDBC:PTAT2:1,2017-03-03T22:00:00Z,27.8260,-97.0510,14.9,9.3,50.0,9.8,'1111122,1111122,1111122' 
NDBC,ioos:station:NOAA.NDBC:PTAT2:1,2017-03-04T00:00:00Z,27.8260,-97.0510,14.9,9.8,50.0,10.8,'1111122,1111122,1111122' 
NDBC,ioos:station:NOAA.NDBC:PTAT2:1,2017-03-04T01:00:00Z,27.8260,-97.0510,14.9,9.3,50.0,11.3,'1111122,1111122,1111122' 
NDBC,ioos:station:NOAA.NDBC:PTAT2:1,2017-03-04T02:00:00Z,27.8260,-97.0510,14.9,9.8,50.0,10.3,'1111122,1111122,1111122' 
NDBC,ioos:station:NOAA.NDBC:PTAT2:1,2017-03-04T03:00:00Z,27.8260,-97.0510,14.9,8.2,60.0,8.8,'1111122,1111122,1111122' 
NDBC,ioos:station:NOAA.NDBC:PTAT2:1,2017-03-04T04:00:00Z,27.8260,-97.0510,14.9,7.7,50.0,8.2,'1111122,1111122,1111122' 
NDBC,ioos:station:NOAA.NDBC:PTAT2:1,2017-03-04T05:00:00Z,27.8260,-97.0510,14.9,7.7,50.0,8.2,'1111122,1111122,1111122' 
NDBC,ioos:station:NOAA.NDBC:PTAT2:1,2017-03-04T06:00:00Z,27.8260,-97.0510,14.9,8.8,70.0,9.3,'1111122,1111122,1111122' 
NDBC,ioos:station:NOAA.NDBC:PTAT2:1,2017-03-04T07:00:00Z,27.8260,-97.0510,14.9,7.7,70.0,8.8,'1111122,1111122,1111122' 
NDBC,ioos:station:NOAA.NDBC:PTAT2:1,2017-03-04T08:00:00Z,27.8260,-97.0510,14.9,8.2,80.0,9.3,'1111122,1111122,1111122' 
NDBC,ioos:station:NOAA.NDBC:PTAT2:1,2017-03-04T09:00:00Z,27.8260,-97.0510,14.9,7.7,80.0,8.2,'1111122,1111122,1111122' 
NDBC,ioos:station:NOAA.NDBC:PTAT2:1,2017-03-04T10:00:00Z,27.8260,-97.0510,14.9,6.2,80.0,6.7,'1111122,1111122,1111122' 
NDBC,ioos:station:NOAA.NDBC:PTAT2:1,2017-03-04T11:00:00Z,27.8260,-97.0510,14.9,4.1,90.0,4.6,'1111122,1111122,1111122' 
NDBC,ioos:station:NOAA.NDBC:PTAT2:1,2017-03-04T12:00:00Z,27.8260,-97.0510,14.9,6.2,100.0,6.7,'1111122,1111122,1111122' 
NDBC,ioos:station:NOAA.NDBC:PTAT2:1,2017-03-04T13:00:00Z,27.8260,-97.0510,14.9,6.7,100.0,7.2,'1111122,1111122,1111122' 
NDBC,ioos:station:NOAA.NDBC:PTAT2:1,2017-03-04T14:00:00Z,27.8260,-97.0510,14.9,7.2,90.0,8.2,'1111122,1111122,1111122' 
NDBC,ioos:station:NOAA.NDBC:PTAT2:1,2017-03-04T15:00:00Z,27.8260,-97.0510,14.9,7.7,80.0,8.8,'1111122,1111122,1111122' 
NDBC,ioos:station:NOAA.NDBC:PTAT2:1,2017-03-04T16:00:00Z,27.8260,-97.0510,14.9,6.7,90.0,7.2,'1111122,1111122,1111122' 
NDBC,ioos:station:NOAA.NDBC:PTAT2:1,2017-03-04T17:00:00Z,27.8260,-97.0510,14.9,5.7,100.0,6.2,'1111122,1111122,1111122' 
NDBC,ioos:station:NOAA.NDBC:PTAT2:1,2017-03-04T18:00:00Z,27.8260,-97.0510,14.9,6.2,60.0,6.7,'1111122,1111122,1111122' 
NDBC,ioos:station:NOAA.NDBC:PTAT2:1,2017-03-04T19:00:00Z,27.8260,-97.0510,14.9,6.7,60.0,7.7,'1111122,1111122,1111122' 
NDBC,ioos:station:NOAA.NDBC:PTAT2:1,2017-03-04T20:00:00Z,27.8260,-97.0510,14.9,8.8,70.0,9.3,'1111122,1111122,1111122' 
NDBC,ioos:station:NOAA.NDBC:PTAT2:1,2017-03-04T21:00:00Z,27.8260,-97.0510,14.9,8.8,80.0,9.3,'1111122,1111122,1111122' 
NDBC,ioos:station:NOAA.NDBC:PTAT2:1,2017-03-04T22:00:00Z,27.8260,-97.0510,14.9,10.8,70.0,11.8,'1111122,1111122,1111122' 
NDBC,ioos:station:NOAA.NDBC:PTAT2:1,2017-03-04T23:00:00Z,27.8260,-97.0510,14.9,11.3,70.0,12.9,'1111122,1111122,1111122' 
NDBC,ioos:station:NOAA.NDBC:PTAT2:1,2017-03-05T00:00:00Z,27.8260,-97.0510,14.9,10.3,70.0,11.3,'1111122,1111122,1111122' 
NDBC,ioos:station:NOAA.NDBC:PTAT2:1,2017-03-05T01:00:00Z,27.8260,-97.0510,14.9,7.2,50.0,7.7,'1111122,1111122,1111122' 
NDBC,ioos:station:NOAA.NDBC:PTAT2:1,2017-03-05T02:00:00Z,27.8260,-97.0510,14.9,5.7,40.0,6.7,'1111122,1111122,1111122' 
NDBC,ioos:station:NOAA.NDBC:PTAT2:1,2017-03-05T03:00:00Z,27.8260,-97.0510,14.9,8.8,80.0,9.8,'1111122,1111122,1111122' 
NDBC,ioos:station:NOAA.NDBC:PTAT2:1,2017-03-05T04:00:00Z,27.8260,-97.0510,14.9,9.8,100.0,10.3,'1111122,1111122,1111122' 
NDBC,ioos:station:NOAA.NDBC:PTAT2:1,2017-03-05T05:00:00Z,27.8260,-97.0510,14.9,9.3,100.0,9.8,'1111122,1111122,1111122' 
NDBC,ioos:station:NOAA.NDBC:PTAT2:1,2017-03-05T06:00:00Z,27.8260,-97.0510,14.9,4.6,100.0,5.1,'1111122,1111122,1111122' 
NDBC,ioos:station:NOAA.NDBC:PTAT2:1,2017-03-05T07:00:00Z,27.8260,-97.0510,14.9,3.6,100.0,4.1,'1111122,1111122,1111122' 
NDBC,ioos:station:NOAA.NDBC:PTAT2:1,2017-03-05T08:00:00Z,27.8260,-97.0510,14.9,4.6,100.0,4.6,'1111122,1111122,1111122' 
NDBC,ioos:station:NOAA.NDBC:PTAT2:1,2017-03-05T09:00:00Z,27.8260,-97.0510,14.9,6.2,160.0,6.7,'1111122,1111122,1111122' 
NDBC,ioos:station:NOAA.NDBC:PTAT2:1,2017-03-05T10:00:00Z,27.8260,-97.0510,14.9,4.1,190.0,4.6,'1111122,1111122,1111122' 
NDBC,ioos:station:NOAA.NDBC:PTAT2:1,2017-03-05T11:00:00Z,27.8260,-97.0510,14.9,4.1,190.0,4.1,'1111122,1111122,1111122' 
NDBC,ioos:station:NOAA.NDBC:PTAT2:1,2017-03-05T12:00:00Z,27.8260,-97.0510,14.9,2.1,180.0,2.6,'1111122,1111122,1111122' 
NDBC,ioos:station:NOAA.NDBC:PTAT2:1,2017-03-05T13:00:00Z,27.8260,-97.0510,14.9,2.6,190.0,3.1,'1111122,1111122,1111122' 
NDBC,ioos:station:NOAA.NDBC:PTAT2:1,2017-03-05T15:00:00Z,27.8260,-97.0510,14.9,0.0,-9999.0,0.5,'1114422,1111122,1111122' 
NDBC,ioos:station:NOAA.NDBC:PTAT2:1,2017-03-05T16:00:00Z,27.8260,-97.0510,14.9,2.1,120.0,2.1,'1111122,1111122,1111122' 
NDBC,ioos:station:NOAA.NDBC:PTAT2:1,2017-03-05T17:00:00Z,27.8260,-97.0510,14.9,1.5,120.0,2.1,'1111122,1111122,1111122' 
NDBC,ioos:station:NOAA.NDBC:PTAT2:1,2017-03-05T18:00:00Z,27.8260,-97.0510,14.9,1.5,170.0,1.5,'1111122,1111122,1111122' 
NDBC,ioos:station:NOAA.NDBC:PTAT2:1,2017-03-05T19:00:00Z,27.8260,-97.0510,14.9,3.1,170.0,3.1,'1111122,1111122,1111122' 
NDBC,ioos:station:NOAA.NDBC:PTAT2:1,2017-03-05T20:00:00Z,27.8260,-97.0510,14.9,3.1,170.0,3.6,'1111122,1111122,1111122' 
NDBC,ioos:station:NOAA.NDBC:PTAT2:1,2017-03-05T21:00:00Z,27.8260,-97.0510,14.9,2.1,160.0,2.1,'1111122,1111122,1111122' 
NDBC,ioos:station:NOAA.NDBC:PTAT2:1,2017-03-05T22:00:00Z,27.8260,-97.0510,14.9,4.1,100.0,4.6,'1111122,1111122,1111122' 
NDBC,ioos:station:NOAA.NDBC:PTAT2:1,2017-03-05T23:00:00Z,27.8260,-97.0510,14.9,4.6,110.0,5.1,'1111122,1111122,1111122' 
NDBC,ioos:station:NOAA.NDBC:PTAT2:1,2017-03-06T00:00:00Z,27.8260,-97.0510,14.9,5.1,120.0,5.7,'1111122,1111122,1111122' 
NDBC,ioos:station:NOAA.NDBC:PTAT2:1,2017-03-06T01:00:00Z,27.8260,-97.0510,14.9,5.7,120.0,5.7,'1111122,1111122,1111122' 
NDBC,ioos:station:NOAA.NDBC:PTAT2:1,2017-03-06T02:00:00Z,27.8260,-97.0510,14.9,4.6,120.0,5.1,'1111122,1111122,1111122' 
NDBC,ioos:station:NOAA.NDBC:PTAT2:1,2017-03-06T03:00:00Z,27.8260,-97.0510,14.9,4.6,130.0,5.7,'1111122,1111122,1111122' 
NDBC,ioos:station:NOAA.NDBC:PTAT2:1,2017-03-06T04:00:00Z,27.8260,-97.0510,14.9,7.2,130.0,7.7,'1111122,1111122,1111122' 
NDBC,ioos:station:NOAA.NDBC:PTAT2:1,2017-03-06T05:00:00Z,27.8260,-97.0510,14.9,6.7,140.0,7.7,'1111122,1111122,1111122' 
NDBC,ioos:station:NOAA.NDBC:PTAT2:1,2017-03-06T06:00:00Z,27.8260,-97.0510,14.9,7.7,150.0,8.2,'1111122,1111122,1111122' 
NDBC,ioos:station:NOAA.NDBC:PTAT2:1,2017-03-06T07:00:00Z,27.8260,-97.0510,14.9,5.1,140.0,5.1,'1111122,1111122,1111122' 
NDBC,ioos:station:NOAA.NDBC:PTAT2:1,2017-03-06T08:00:00Z,27.8260,-97.0510,14.9,4.6,140.0,4.6,'1111122,1111122,1111122' 
NDBC,ioos:station:NOAA.NDBC:PTAT2:1,2017-03-06T09:00:00Z,27.8260,-97.0510,14.9,5.7,130.0,6.2,'1111122,1111122,1111122' 
NDBC,ioos:station:NOAA.NDBC:PTAT2:1,2017-03-06T10:00:00Z,27.8260,-97.0510,14.9,6.2,130.0,6.7,'1111122,1111122,1111122' 
NDBC,ioos:station:NOAA.NDBC:PTAT2:1,2017-03-06T11:00:00Z,27.8260,-97.0510,14.9,6.2,140.0,6.7,'1111122,1111122,1111122' 
NDBC,ioos:station:NOAA.NDBC:PTAT2:1,2017-03-06T12:00:00Z,27.8260,-97.0510,14.9,5.1,140.0,5.7,'1111122,1111122,1111122' 
NDBC,ioos:station:NOAA.NDBC:PTAT2:1,2017-03-06T13:00:00Z,27.8260,-97.0510,14.9,4.6,130.0,4.6,'1111122,1111122,1111122' 
NDBC,ioos:station:NOAA.NDBC:PTAT2:1,2017-03-06T14:00:00Z,27.8260,-97.0510,14.9,5.7,140.0,6.2,'1111122,1111122,1111122' 
NDBC,ioos:station:NOAA.NDBC:PTAT2:1,2017-03-06T15:00:00Z,27.8260,-97.0510,14.9,7.7,140.0,8.2,'1111122,1111122,1111122' 
NDBC,ioos:station:NOAA.NDBC:PTAT2:1,2017-03-06T16:00:00Z,27.8260,-97.0510,14.9,6.7,140.0,7.2,'1111122,1111122,1111122' 
NDBC,ioos:station:NOAA.NDBC:PTAT2:1,2017-03-06T17:00:00Z,27.8260,-97.0510,14.9,5.7,130.0,6.2,'1111122,1111122,1111122' 
NDBC,ioos:station:NOAA.NDBC:PTAT2:1,2017-03-06T18:00:00Z,27.8260,-97.0510,14.9,6.7,130.0,7.2,'1111122,1111122,1111122' 
NDBC,ioos:station:NOAA.NDBC:PTAT2:1,2017-03-06T19:00:00Z,27.8260,-97.0510,14.9,4.6,130.0,5.1,'1111122,1111122,1111122' 
NDBC,ioos:station:NOAA.NDBC:PTAT2:1,2017-03-06T20:00:00Z,27.8260,-97.0510,14.9,5.1,130.0,5.7,'1111122,1111122,1111122' 
NDBC,ioos:station:NOAA.NDBC:PTAT2:1,2017-03-06T21:00:00Z,27.8260,-97.0510,14.9,5.1,120.0,5.7,'1111122,1111122,1111122' 
NDBC,ioos:station:NOAA.NDBC:PTAT2:1,2017-03-06T22:00:00Z,27.8260,-97.0510,14.9,5.7,130.0,6.7,'1111122,1111122,1111122' 
NDBC,ioos:station:NOAA.NDBC:PTAT2:1,2017-03-06T23:00:00Z,27.8260,-97.0510,14.9,7.2,120.0,7.2,'1111122,1111122,1111122' 
NDBC,ioos:station:NOAA.NDBC:PTAT2:1,2017-03-07T00:00:00Z,27.8260,-97.0510,14.9,6.2,120.0,6.7,'1111122,1111122,1111122' 
NDBC,ioos:station:NOAA.NDBC:PTAT2:1,2017-03-07T01:00:00Z,27.8260,-97.0510,14.9,7.2,130.0,8.2,'1111122,1111122,1111122' 
NDBC,ioos:station:NOAA.NDBC:PTAT2:1,2017-03-07T02:00:00Z,27.8260,-97.0510,14.9,8.2,130.0,9.3,'1111122,1111122,1111122' 
NDBC,ioos:station:NOAA.NDBC:PTAT2:1,2017-03-07T03:00:00Z,27.8260,-97.0510,14.9,7.7,130.0,8.2,'1111122,1111122,1111122' 
NDBC,ioos:station:NOAA.NDBC:PTAT2:1,2017-03-07T04:00:00Z,27.8260,-97.0510,14.9,5.7,150.0,6.2,'1111122,1111122,1111122' 
NDBC,ioos:station:NOAA.NDBC:PTAT2:1,2017-03-07T05:00:00Z,27.8260,-97.0510,14.9,5.7,150.0,6.2,'1111122,1111122,1111122' 
NDBC,ioos:station:NOAA.NDBC:PTAT2:1,2017-03-07T06:00:00Z,27.8260,-97.0510,14.9,6.7,160.0,7.2,'1111122,1111122,1111122' 
NDBC,ioos:station:NOAA.NDBC:PTAT2:1,2017-03-07T07:00:00Z,27.8260,-97.0510,14.9,6.7,150.0,7.2,'1111122,1111122,1111122' 
NDBC,ioos:station:NOAA.NDBC:PTAT2:1,2017-03-07T08:00:00Z,27.8260,-97.0510,14.9,6.2,150.0,6.7,'1111122,1111122,1111122' 
NDBC,ioos:station:NOAA.NDBC:PTAT2:1,2017-03-07T09:00:00Z,27.8260,-97.0510,14.9,7.2,150.0,7.7,'1111122,1111122,1111122' 
NDBC,ioos:station:NOAA.NDBC:PTAT2:1,2017-03-07T10:00:00Z,27.8260,-97.0510,14.9,5.7,140.0,5.7,'1111122,1111122,1111122' 
NDBC,ioos:station:NOAA.NDBC:PTAT2:1,2017-03-07T11:00:00Z,27.8260,-97.0510,14.9,4.6,130.0,4.6,'1111122,1111122,1111122' 
NDBC,ioos:station:NOAA.NDBC:PTAT2:1,2017-03-07T12:00:00Z,27.8260,-97.0510,14.9,4.1,110.0,4.1,'1111122,1111122,1111122' 
NDBC,ioos:station:NOAA.NDBC:PTAT2:1,2017-03-07T13:00:00Z,27.8260,-97.0510,14.9,4.6,90.0,4.6,'1111122,1111122,1111122' 
NDBC,ioos:station:NOAA.NDBC:PTAT2:1,2017-03-07T14:00:00Z,27.8260,-97.0510,14.9,5.1,110.0,5.1,'1111122,1111122,1111122' 
NDBC,ioos:station:NOAA.NDBC:PTAT2:1,2017-03-07T15:00:00Z,27.8260,-97.0510,14.9,3.6,100.0,4.1,'1111122,1111122,1111122' 
NDBC,ioos:station:NOAA.NDBC:PTAT2:1,2017-03-07T16:00:00Z,27.8260,-97.0510,14.9,4.6,120.0,4.6,'1111122,1111122,1111122' 
NDBC,ioos:station:NOAA.NDBC:PTAT2:1,2017-03-07T17:00:00Z,27.8260,-97.0510,14.9,5.1,110.0,5.7,'1111122,1111122,1111122' 
NDBC,ioos:station:NOAA.NDBC:PTAT2:1,2017-03-07T18:00:00Z,27.8260,-97.0510,14.9,3.6,90.0,3.6,'1111122,1111122,1111122' 
NDBC,ioos:station:NOAA.NDBC:PTAT2:1,2017-03-07T19:00:00Z,27.8260,-97.0510,14.9,3.1,60.0,3.6,'1111122,1111122,1111122' 
NDBC,ioos:station:NOAA.NDBC:PTAT2:1,2017-03-07T20:00:00Z,27.8260,-97.0510,14.9,3.6,60.0,3.6,'1111122,1111122,1111122' 
NDBC,ioos:station:NOAA.NDBC:PTAT2:1,2017-03-07T21:00:00Z,27.8260,-97.0510,14.9,4.6,70.0,5.1,'1111122,1111122,1111122' 
NDBC,ioos:station:NOAA.NDBC:PTAT2:1,2017-03-07T22:00:00Z,27.8260,-97.0510,14.9,4.6,90.0,5.1,'1111122,1111122,1111122' 
NDBC,ioos:station:NOAA.NDBC:PTAT2:1,2017-03-08T00:00:00Z,27.8260,-97.0510,14.9,4.6,80.0,5.1,'1111122,1111122,1111122' 
NDBC,ioos:station:NOAA.NDBC:PTAT2:1,2017-03-08T01:00:00Z,27.8260,-97.0510,14.9,5.1,70.0,5.7,'1111122,1111122,1111122' 
NDBC,ioos:station:NOAA.NDBC:PTAT2:1,2017-03-08T02:00:00Z,27.8260,-97.0510,14.9,5.7,80.0,6.2,'1111122,1111122,1111122' 
NDBC,ioos:station:NOAA.NDBC:PTAT2:1,2017-03-08T03:00:00Z,27.8260,-97.0510,14.9,4.6,60.0,4.6,'1111122,1111122,1111122' 
NDBC,ioos:station:NOAA.NDBC:PTAT2:1,2017-03-08T04:00:00Z,27.8260,-97.0510,14.9,7.7,10.0,9.3,'1111122,1111122,1111122' 
NDBC,ioos:station:NOAA.NDBC:PTAT2:1,2017-03-08T05:00:00Z,27.8260,-97.0510,14.9,9.8,20.0,10.8,'1111122,1111122,1111122' 
NDBC,ioos:station:NOAA.NDBC:PTAT2:1,2017-03-08T06:00:00Z,27.8260,-97.0510,14.9,9.8,30.0,11.3,'1111122,1111122,1111122' 
NDBC,ioos:station:NOAA.NDBC:PTAT2:1,2017-03-08T07:00:00Z,27.8260,-97.0510,14.9,10.8,40.0,12.4,'1111122,1111122,1111122' 
NDBC,ioos:station:NOAA.NDBC:PTAT2:1,2017-03-08T08:00:00Z,27.8260,-97.0510,14.9,9.3,40.0,10.8,'1111122,1111122,1111122' 
NDBC,ioos:station:NOAA.NDBC:PTAT2:1,2017-03-08T09:00:00Z,27.8260,-97.0510,14.9,11.3,40.0,12.4,'1111122,1111122,1111122' 
NDBC,ioos:station:NOAA.NDBC:PTAT2:1,2017-03-08T10:00:00Z,27.8260,-97.0510,14.9,9.8,50.0,11.3,'1111122,1111122,1111122' 
NDBC,ioos:station:NOAA.NDBC:PTAT2:1,2017-03-08T11:00:00Z,27.8260,-97.0510,14.9,10.3,50.0,11.3,'1111122,1111122,1111122' 
NDBC,ioos:station:NOAA.NDBC:PTAT2:1,2017-03-08T12:00:00Z,27.8260,-97.0510,14.9,8.2,50.0,9.3,'1111122,1111122,1111122' 
NDBC,ioos:station:NOAA.NDBC:PTAT2:1,2017-03-08T13:00:00Z,27.8260,-97.0510,14.9,7.2,50.0,8.2,'1111122,1111122,1111122' 
NDBC,ioos:station:NOAA.NDBC:PTAT2:1,2017-03-08T14:00:00Z,27.8260,-97.0510,14.9,6.7,40.0,7.7,'1111122,1111122,1111122' 
NDBC,ioos:station:NOAA.NDBC:PTAT2:1,2017-03-08T15:00:00Z,27.8260,-97.0510,14.9,7.7,40.0,8.2,'1111122,1111122,1111122' 
NDBC,ioos:station:NOAA.NDBC:PTAT2:1,2017-03-08T16:00:00Z,27.8260,-97.0510,14.9,6.7,50.0,7.7,'1111122,1111122,1111122' 
NDBC,ioos:station:NOAA.NDBC:PTAT2:1,2017-03-08T17:00:00Z,27.8260,-97.0510,14.9,5.7,60.0,6.2,'1111122,1111122,1111122' 
NDBC,ioos:station:NOAA.NDBC:PTAT2:1,2017-03-08T18:00:00Z,27.8260,-97.0510,14.9,6.2,70.0,6.7,'1111122,1111122,1111122' 
NDBC,ioos:station:NOAA.NDBC:PTAT2:1,2017-03-08T19:00:00Z,27.8260,-97.0510,14.9,5.1,70.0,5.7,'1111122,1111122,1111122' 
NDBC,ioos:station:NOAA.NDBC:PTAT2:1,2017-03-08T20:00:00Z,27.8260,-97.0510,14.9,3.6,40.0,4.1,'1111122,1111122,1111122' 
NDBC,ioos:station:NOAA.NDBC:PTAT2:1,2017-03-08T21:00:00Z,27.8260,-97.0510,14.9,4.6,40.0,5.1,'1111122,1111122,1111122' 
NDBC,ioos:station:NOAA.NDBC:PTAT2:1,2017-03-08T22:00:00Z,27.8260,-97.0510,14.9,6.2,70.0,7.2,'1111122,1111122,1111122' 
NDBC,ioos:station:NOAA.NDBC:PTAT2:1,2017-03-08T23:00:00Z,27.8260,-97.0510,14.9,6.7,120.0,8.2,'1111122,1111122,1111122' 
NDBC,ioos:station:NOAA.NDBC:PTAT2:1,2017-03-09T00:00:00Z,27.8260,-97.0510,14.9,5.1,170.0,6.2,'1111122,1111122,1111122' 
NDBC,ioos:station:NOAA.NDBC:PTAT2:1,2017-03-09T01:00:00Z,27.8260,-97.0510,14.9,4.6,70.0,4.6,'1111122,1111122,1111122' 
NDBC,ioos:station:NOAA.NDBC:PTAT2:1,2017-03-09T02:00:00Z,27.8260,-97.0510,14.9,4.1,80.0,4.6,'1111122,1111122,1111122' 
NDBC,ioos:station:NOAA.NDBC:PTAT2:1,2017-03-09T03:00:00Z,27.8260,-97.0510,14.9,4.6,50.0,5.1,'1111122,1111122,1111122' 
NDBC,ioos:station:NOAA.NDBC:PTAT2:1,2017-03-09T04:00:00Z,27.8260,-97.0510,14.9,3.6,60.0,4.1,'1111122,1111122,1111122' 
NDBC,ioos:station:NOAA.NDBC:PTAT2:1,2017-03-09T05:00:00Z,27.8260,-97.0510,14.9,3.6,70.0,4.1,'1111122,1111122,1111122' 
NDBC,ioos:station:NOAA.NDBC:PTAT2:1,2017-03-09T06:00:00Z,27.8260,-97.0510,14.9,2.6,70.0,3.1,'1111122,1111122,1111122' 
NDBC,ioos:station:NOAA.NDBC:PTAT2:1,2017-03-09T07:00:00Z,27.8260,-97.0510,14.9,3.1,100.0,3.1,'1111122,1111122,1111122' 
NDBC,ioos:station:NOAA.NDBC:PTAT2:1,2017-03-09T08:00:00Z,27.8260,-97.0510,14.9,1.5,30.0,2.1,'1111122,1111122,1111122' 
NDBC,ioos:station:NOAA.NDBC:PTAT2:1,2017-03-09T10:00:00Z,27.8260,-97.0510,14.9,4.1,40.0,4.1,'1111122,1111122,1111122' 
NDBC,ioos:station:NOAA.NDBC:PTAT2:1,2017-03-09T11:00:00Z,27.8260,-97.0510,14.9,4.1,40.0,4.6,'1111122,1111122,1111122' 